カタログに戻る

COSMOS 2491 DEB

LostPO
NORAD 45109·DEBRIS·🇷🇺 Russia

打ち上げ Dec 25, 2013 から Plesetsk Cosmodrome

Loading…

次のパス (今後24時間)

TLE

古いSource: Space-Track

元期: Feb 29, 2020, 01:08 UTC

1 45109U 13076Y   20060.04783337 -.00001757  00000-0 -16171-1 0  9998
2 45109  82.4270 164.7354 0138206 179.2211 180.9097 12.21968326  5657

AllMySatでCOSMOS 2491 DEBをリアルタイム追跡

Download on the App Store